World > North America > United States > Iowa

Ionia, Iowa Regional Weather

Lat: 43.04N, Lon: 92.46W
Wx Zone: IAZ019Web Search

If you are on your PC, you can easily pass this page to your phone by scanning the QR Code near the bottom with your camera.

Feedback


°F Click to change Ionia hourly weather to Imperial units.Click to change Ionia hourly weather to Metric units. °C
Ionia Weather Map
UTC Time: 5/16/2021, 15:37
Your Time:

Ionia, IA Regional Weather

Expires:202105161600;;207708
ASUS43 KDMX 161506
RWRIA 

WEATHER ROUNDUP FOR IOWA
NATIONAL WEATHER SERVICE DES MOINES IA
1000 AM CDT SUN MAY 16 2021

NOTE: "FAIR" INDICATES FEW OR NO CLOUDS BELOW 12,000 FEET WITH NO
SIGNIFICANT WEATHER AND/OR OBSTRUCTIONS TO VISIBILITY.

* - THESE STATIONS ARE NOT NWS STATIONS...THUS NOT UNDER NWS
QUALITY CONTROL.  THEY ALSO DO NOT REPORT WEATHER SUCH 
AS PRECIPITATION OR FOG.  


IAZ007>011-017>019-026>030-037>042-050>054-066-161600-
   NORTHEAST IOWA
  
CITY           SKY/WX    TMP DP  RH WIND       PRES   REMARKS
CEDAR RAPIDS   PTSUNNY   62  54  74 SE10      30.14S                  
CHARLES CITY *   N/A    N/A N/A N/A MISG        N/A                   
CLINTON *      MOSUNNY   61  54  77 E8        30.18F                  
DECORAH *        N/A     59  55  88 S9        30.15S                  
DUBUQUE        PTSUNNY   60  52  74 CALM      30.18R                  
MONTICELLO *   MOSUNNY   61  59  94 SE7       30.15F                  
OELWEIN *      CLOUDY    59  54  82 SE9       30.16S                  
WATERLOO       CLOUDY    61  54  77 SE10      30.14F                  
$$
 

SKY/WX - Weather  TMP - Temperature  DP - Dew Point  RH - Relative Humidity
WIND - Wind Direction/Speed PRES - Barometric Pressure VSB - Visibility
WCI - Wind Chill Index E13G22 Wind - East Wind 13 mph/Gusts of 22 mph